Location: Bamazo
(6.7448°N, 10.8189°W)
Time: 00:23:59
(UTC+00:00)

Cosmos 1939 Rocket - Pass Details

Date: 18 September 2020
Orbit: 531 x 585 km, 97.4° (Epoch: 21 October)

Event Time Altitude Azimuth Distance (km) Brightness Sun altitude
Rises 19:31:32 0° 176° (S) 2,744 6.3 -13.3°
Reaches altitude 10° 19:33:40 10° 180° (S) 1,856 5.5 -13.9°
Maximum altitude 19:37:38 58° 259° (W) 665 3.5 -14.8°
Drops below altitude 10° 19:41:39 10° 339° (NNW) 1,881 5.8 -15.8°
Sets 19:43:50 0° 343° (NNW) 2,784 6.7 -16.4°
